| time (UTC) | temp F | wind direction | speed MPH | gust MPH | rain 1hr in | rain 24hr in | rain mn in | humidity % | barometer mb |
| 20260509181643 | 57 | 35 | 3.0 | 6.0 | 0.00 | 1.47 | 1.47 | 89 | 1011.3 |
| 20260509180151 | 57 | 327.0 | 255.0 | 0.00 | 1.47 | 1.47 | 88 | 1011.1 | |
| 20260509174537 | 57 | 87 | 1.0 | 2.0 | 0.00 | 1.47 | 1.47 | 87 | 1011.2 |
| 20260509173101 | 58 | 29 | 2.0 | 5.0 | 0.00 | 1.47 | 1.47 | 86 | 1010.9 |
| 20260509171658 | 58 | 68 | 5.0 | 9.0 | 0.00 | 1.47 | 1.47 | 86 | 1010.8 |
| 20260509170128 | 59 | 48 | 2.0 | 7.0 | 0.00 | 1.47 | 1.47 | 80 | 1010.6 |
| 20260509164656 | 59 | 29 | 3.0 | 6.0 | 0.00 | 1.47 | 1.47 | 80 | 1010.6 |
| 20260509163011 | 59 | 342 | 1.0 | 5.0 | 0.00 | 1.47 | 1.47 | 81 | 1010.6 |
| 20260509161529 | 58 | 65 | 0.0 | 3.0 | 0.00 | 1.47 | 1.47 | 82 | 1010.5 |
| 20260509160006 | 57 | 264 | 3.0 | 6.0 | 0.00 | 1.47 | 1.47 | 85 | 1010.7 |
| 20260509154542 | 57 | 15 | 1.0 | 7.0 | 0.00 | 1.47 | 1.47 | 88 | 1010.6 |
| 20260509153103 | 56 | 239 | 3.0 | 4.0 | 0.02 | 1.47 | 1.47 | 89 | 1010.6 |
| 20260509151620 | 56 | 342 | 0.0 | 3.0 | 0.04 | 1.47 | 1.47 | 91 | 1010.4 |
| 20260509150059 | 55 | 291 | 0.0 | 4.0 | 0.13 | 1.47 | 1.47 | 92 | 1010.4 |
| 20260509144603 | 55 | 282 | 3.0 | 16.0 | 0.31 | 1.47 | 1.47 | 93 | 1010.6 |
| 20260509143104 | 55 | 26 | 5.0 | 11.0 | 0.43 | 1.46 | 1.46 | 92 | 1011.7 |
| 20260509141540 | 55 | 40 | 1.0 | 3.0 | 0.45 | 1.43 | 1.43 | 93 | 1012.2 |
| 20260509140022 | 55 | 276 | 1.0 | 8.0 | 0.37 | 1.34 | 1.34 | 93 | 1012.6 |
| 20260509134518 | 55 | 266 | 4.0 | 8.0 | 0.21 | 1.15 | 1.15 | 93 | 1012.7 |
| 20260509133010 | 55 | 244 | 2.0 | 8.0 | 0.11 | 1.03 | 1.03 | 92 | 1012.5 |
| 20260509131511 | 55 | 271 | 4.0 | 12.0 | 0.14 | 0.98 | 0.98 | 91 | 1012.2 |
| 20260509124656 | 56 | 193 | 1.0 | 3.0 | 0.36 | 0.94 | 0.94 | 93 | 1011.3 |
| 20260509123102 | 56 | 330 | 0.0 | 4.0 | 0.51 | 0.92 | 0.92 | 93 | 1011.1 |
| 20260509121612 | 54 | 127 | 2.0 | 5.0 | 0.49 | 0.84 | 0.84 | 91 | 1011.2 |
| 20260509120007 | 54 | 328 | 2.0 | 9.0 | 0.54 | 0.77 | 0.77 | 88 | 1011.3 |
| 20260509113019 | 56 | 356 | 1.0 | 7.0 | 0.40 | 0.40 | 0.40 | 91 | 1011.9 |
| 20260509111614 | 56 | 44 | 0.0 | 6.0 | 0.35 | 0.35 | 0.35 | 91 | 1011.8 |
| 20260509110117 | 57 | 52 | 8.0 | 13.0 | 0.24 | 0.24 | 0.24 | 91 | 1011.9 |
| 20260509104622 | 58 | 5 | 3.0 | 6.0 | 0.06 | 0.06 | 0.06 | 90 | 1011.9 |
| 20260509103150 | 58 | 21 | 1.0 | 3.0 | 0.00 | 0.00 | 0.00 | 88 | 1011.9 |
| 20260509101515 | 58 | 56 | 0.0 | 2.0 | 0.00 | 0.00 | 0.00 | 90 | 1012.1 |
| 20260509100004 | 58 | 63 | 0.0 | 3.0 | 0.00 | 0.00 | 0.00 | 90 | 1012.3 |
| 20260509094656 | 58 | 67 | 3.0 | 7.0 | 0.00 | 0.00 | 0.00 | 90 | 1012.0 |
| 20260509093010 | 58 | 34 | 3.0 | 8.0 | 0.00 | 0.00 | 0.00 | 91 | 1012.2 |
| 20260509091506 | 58 | 33 | 5.0 | 10.0 | 0.00 | 0.00 | 0.00 | 91 | 1012.2 |
| 20260509090144 | 57 | 342 | 2.0 | 6.0 | 0.00 | 0.00 | 0.00 | 91 | 1012.3 |
| 20260509084648 | 57 | 34 | 2.0 | 5.0 | 0.00 | 0.00 | 0.00 | 91 | 1012.5 |
| 20260509081653 | 57 | 50 | 2.0 | 9.0 | 0.00 | 0.00 | 0.00 | 90 | 1012.1 |
| 20260509080149 | 58 | 44 | 3.0 | 8.0 | 0.00 | 0.00 | 0.00 | 89 | 1012.2 |
| 20260509074515 | 58 | 342 | 1.0 | 4.0 | 0.00 | 0.00 | 0.00 | 88 | 1011.7 |
| 20260509073021 | 58 | 275 | 1.0 | 4.0 | 0.00 | 0.00 | 0.00 | 87 | 1011.4 |
| 20260509071533 | 57 | 146 | 1.0 | 3.0 | 0.00 | 0.00 | 0.00 | 89 | 1011.2 |
| 20260509070038 | 56 | 127 | 0.0 | 2.0 | 0.00 | 0.00 | 0.00 | 90 | 1011.3 |
| 20260509064600 | 56 | 33 | 1.0 | 3.0 | 0.00 | 0.00 | 0.00 | 90 | 1011.8 |
| 20260509063127 | 55 | 239 | 3.0 | 8.0 | 0.00 | 0.00 | 0.00 | 90 | 1012.0 |
| 20260509061650 | 55 | 215 | 2.0 | 6.0 | 0.00 | 0.00 | 0.00 | 92 | 1012.2 |
| 20260509060146 | 54 | 256 | 1.0 | 2.0 | 0.00 | 0.00 | 0.00 | 92 | 1011.8 |
| 20260509053035 | 54 | 87 | 1.0 | 2.0 | 0.00 | 0.00 | 0.00 | 92 | 1011.8 |
| 20260509051555 | 53 | 135 | 0.0 | 2.0 | 0.00 | 0.00 | 0.00 | 92 | 1011.7 |
| 20260509050058 | 53 | 137 | 0.0 | 3.0 | 0.00 | 0.00 | 0.00 | 92 | 1011.5 |
| 20260509044611 | 53 | 256 | 0.0 | 2.0 | 0.00 | 0.00 | 0.00 | 93 | 1011.7 |
| 20260509043130 | 53 | 306 | 0.0 | 2.0 | 0.00 | 0.00 | 0.00 | 93 | 1011.9 |
| 20260509041655 | 53 | 360 | 0.0 | 2.0 | 0.00 | 0.00 | 0.00 | 93 | 1011.8 |
| 20260509040017 | 53 | 360 | 0.0 | 3.0 | 0.00 | 0.00 | 0.00 | 93 | 1012.0 |
| 20260509034657 | 52 | 23 | 0.0 | 2.0 | 0.00 | 0.00 | 0.00 | 93 | 1012.2 |
| 20260509033017 | 52 | 329 | 0.0 | 2.0 | 0.00 | 0.00 | 0.00 | 93 | 1012.3 |
| 20260509031536 | 52 | 329 | 0.0 | 2.0 | 0.00 | 0.00 | 0.00 | 93 | 1012.2 |
| 20260509030021 | 52 | 333 | 0.0 | 2.0 | 0.00 | 0.00 | 0.00 | 94 | 1012.3 |
| 20260509024540 | 52 | 333 | 0.0 | 2.0 | 0.00 | 0.00 | 0.00 | 94 | 1012.5 |
| 20260509023139 | 52 | 333 | 0.0 | 2.0 | 0.00 | 0.00 | 0.00 | 94 | 1012.5 |
| 20260509014521 | 51 | 268 | 1.0 | 3.0 | 0.00 | 0.00 | 0.00 | 94 | 1012.7 |
| 20260509013038 | 50 | 272 | 1.0 | 2.0 | 0.00 | 0.00 | 0.00 | 93 | 1013.1 |
| 20260509011601 | 50 | 286 | 0.0 | 2.0 | 0.00 | 0.00 | 0.00 | 93 | 1013.3 |
| 20260509010033 | 50 | 286 | 1.0 | 2.0 | 0.00 | 0.00 | 0.00 | 93 | 1013.3 |
| 20260509004555 | 51 | 293 | 0.0 | 2.0 | 0.00 | 0.00 | 0.00 | 93 | 1013.3 |
| 20260509003047 | 51 | 264 | 0.0 | 1.0 | 0.00 | 0.00 | 0.00 | 93 | 1013.4 |
| 20260509001552 | 52 | 264 | 0.0 | 2.0 | 0.00 | 0.00 | 0.00 | 93 | 1013.6 |
| 20260509000125 | 51 | 264 | 0.0 | 4.0 | 0.00 | 0.00 | 0.00 | 94 | 1013.6 |
| 20260508234600 | 51 | 266 | 2.0 | 4.0 | 0.00 | 0.00 | 0.00 | 93 | 1013.8 |
| 20260508233017 | 51 | 271 | 2.0 | 3.0 | 0.00 | 0.00 | 0.00 | 92 | 1013.9 |
| 20260508231543 | 52 | 271 | 0.0 | 2.0 | 0.00 | 0.00 | 0.00 | 92 | 1014.2 |
| 20260508230109 | 52 | 271 | 0.0 | 2.0 | 0.00 | 0.00 | 0.00 | 92 | 1014.0 |
| 20260508224551 | 53 | 260 | 1.0 | 2.0 | 0.00 | 0.00 | 0.00 | 92 | 1014.2 |
| 20260508223100 | 53 | 252 | 1.0 | 3.0 | 0.00 | 0.00 | 0.00 | 92 | 1014.1 |
| 20260508223037 | 53 | 271 | 1.0 | 3.0 | 0.00 | 0.00 | 0.00 | 92 | 1014.1 |
| 20260508221535 | 53 | 263 | 2.0 | 4.0 | 0.00 | 0.00 | 0.00 | 91 | 1014.2 |
| 20260508220002 | 54 | 306 | 1.0 | 4.0 | 0.00 | 0.00 | 0.00 | 92 | 1014.3 |
| 20260508214608 | 55 | 318 | 1.0 | 3.0 | 0.00 | 0.00 | 0.00 | 92 | 1014.3 |
| 20260508213130 | 55 | 360 | 0.0 | 2.0 | 0.00 | 0.00 | 0.00 | 92 | 1014.5 |
| 20260508211531 | 56 | 82 | 0.0 | 2.0 | 0.00 | 0.00 | 0.00 | 93 | 1014.5 |
| 20260508210040 | 56 | 82 | 0.0 | 2.0 | 0.00 | 0.00 | 0.00 | 92 | 1014.4 |
| 20260508204602 | 56 | 82 | 0.0 | 2.0 | 0.00 | 0.00 | 0.00 | 92 | 1014.1 |
| 20260508201527 | 56 | 79 | 1.0 | 2.0 | 0.00 | 0.00 | 0.00 | 91 | 1014.0 |
| 20260508200006 | 56 | 38 | 0.0 | 2.0 | 0.00 | 0.00 | 0.00 | 91 | 1013.7 |
| 20260508194526 | 56 | 41 | 0.0 | 2.0 | 0.00 | 0.00 | 0.00 | 90 | 1013.6 |
| 20260508193058 | 56 | 24 | 1.0 | 3.0 | 0.00 | 0.00 | 0.00 | 90 | 1013.4 |
| 20260508191551 | 56 | 27 | 1.0 | 4.0 | 0.00 | 0.00 | 0.00 | 89 | 1013.1 |
| 20260508190026 | 57 | 43 | 1.0 | 2.0 | 0.00 | 0.00 | 0.00 | 88 | 1013.1 |
| 20260508184545 | 58 | 83 | 2.0 | 4.0 | 0.00 | 0.00 | 0.00 | 88 | 1013.2 |
| 20260508183139 | 58 | 74 | 2.0 | 5.0 | 0.00 | 0.00 | 0.00 | 86 | 1013.0 |